Location: Tehachapi Municipal Airport
(35.1300°N, 118.4400°W)
Time: 06:40:06
(UTC-07:00)

BREEZE M DEB (TANK) - Visible Passes

Search period start: 25 March 2017 00:00
Search period end: 04 April 2017 00:00
Orbit: 299 x 11981 km, 49.5° (Epoch: 23 March)

Date Brightness Start Highest point End Pass type
(mag) Time Alt. Az. Time Alt. Az. Time Alt. Az.
25 Mar 6.0 02:41:03 10° W 03:10:35 42° NNW 03:17:58 10° NE visible
25 Mar 7.3 20:40:18 10° SSW 22:05:57 64° SE 22:28:29 10° ENE visible
26 Mar 6.2 01:38:32 10° W 02:21:09 49° NNW 02:30:14 10° NE visible
26 Mar 2.9 06:21:51 10° NW 06:28:50 66° NNE 06:31:35 10° ESE visible
26 Mar 7.4 19:50:42 10° S 21:14:06 53° SE 21:39:47 10° ENE visible
27 Mar 6.3 00:34:10 10° WSW 01:31:28 59° NNW 01:42:30 10° NE visible
27 Mar 4.1 05:31:29 10° NW 05:40:33 42° NNE 05:43:51 10° E visible
27 Mar 7.5 19:03:55 10° S 20:22:10 43° ESE 20:50:30 10° ENE visible
27 Mar 6.5 23:30:56 10° SW 00:41:28 70° NW 00:54:41 10° NE visible
28 Mar 4.9 04:39:48 10° WNW 04:51:51 36° N 04:55:58 10° ENE visible
28 Mar 7.7 18:20:45 10° SSE 19:30:31 33° ESE 20:00:14 10° ENE visible
28 Mar 6.8 22:30:36 10° SW 23:51:04 81° NW 00:06:47 10° NE visible
29 Mar 5.5 03:46:00 10° WNW 04:02:49 36° N 04:08:01 10° ENE visible
29 Mar 7.0 21:33:30 10° SSW 23:00:09 87° SE 23:18:45 10° NE visible
30 Mar 5.9 02:49:05 10° WNW 03:13:30 39° N 03:20:04 10° ENE visible
30 Mar 7.3 20:39:19 10° SSW 22:08:40 75° SE 22:30:30 10° NE visible
31 Mar 6.1 01:48:09 10° W 02:23:54 45° NNW 02:32:09 10° NE visible
31 Mar 7.3 19:47:42 10° SSW 21:16:42 64° SE 21:41:58 10° NE visible
01 Apr 6.4 00:43:39 10° WSW 01:34:03 52° NNW 01:44:14 10° NE visible
01 Apr 3.1 05:34:02 10° NW 05:42:36 70° NNE 05:45:39 10° ESE visible
01 Apr 7.5 18:58:34 10° S 20:24:29 53° ESE 20:53:02 10° ENE visible
01 Apr 6.6 23:38:19 10° WSW 00:43:53 61° NNW 00:56:18 10° NE visible
02 Apr 4.3 04:42:57 10° NW 04:54:09 47° NNE 04:57:51 10° E visible
02 Apr 7.6 18:12:11 10° S 19:32:22 43° ESE 20:03:27 10° ENE visible
02 Apr 6.8 22:35:16 10° SW 23:53:22 71° NW 00:08:17 10° NE visible
03 Apr 5.1 03:50:19 10° WNW 04:05:15 40° N 04:09:52 10° E visible
03 Apr 7.1 21:35:42 10° SW 23:02:21 82° NW 23:20:11 10° NE visible
